Regional Weather Roundup
Issued by NWS

Home | Current Version | Previous Version | Text Only | Print | Product List | Glossary Off
Versions: 1 2 3 4 5 6 7 8 9 10 11 12 13 14 15 16 17 18 19 20 21 22 23 24 25 26 27 28 29 30 31 32 33 34 35 36 37 38 39 40 41 42 43 44 45 46 47 48 49 50

000
ASUS43 KMKX 280411
RWRWI

WISCONSIN REGIONAL WEATHER ROUNDUP
NATIONAL WEATHER SERVICE MILWAUKEE/SULLIVAN WI
1100 PM CDT SAT MAY 27 2017

NOTE: "FAIR" INDICATES FEW OR NO CLOUDS BELOW 12,000 FEET WITH NO
SIGNIFICANT WEATHER AND/OR OBSTRUCTIONS TO VISIBILITY.

WIZ001-002-006>008-014>016-023>028-280500-
NORTHWEST WISCONSIN

CITY           SKY/WX    TMP DP  RH WIND       PRES   REMARKS
SUPERIOR ARPT  NOT AVBL
ASHLAND        CLOUDY    60  46  59 S8        29.79S
HAYWARD        PTCLDY    56  47  71 S5        29.82F
SIREN          CLOUDY    61  48  62 CALM      29.81F
CUMBERLAND     CLEAR     54  48  82 S3        29.84S
RICE LAKE      MOCLDY    57  49  74 S3        29.85F
CHETEK         CLEAR     53  50  88 CALM      29.84F
LADYSMITH      CLOUDY    59  50  72 SW5       29.86S
EAU CLAIRE     CLEAR     55  49  80 SW3       29.84S
MENOMONIE      CLEAR     58  47  67 CALM      29.85F
NEW RICHMOND   PTCLDY    59  47  66 S6        29.84S
OSCEOLA        CLOUDY    61  51  69 S6        29.85F
$$

WIZ003>005-009-010-017-018-280500-
NORTH CENTRAL WISCONSIN

CITY           SKY/WX    TMP DP  RH WIND       PRES   REMARKS
MANITOWISH WTR CLOUDY    57  50  77 SW6       29.82F
ARBOR VITAE    CLOUDY    62  51  66 W5        29.82F
WOODRUFF       CLOUDY    62  51  66 W5        29.82F
RHINELANDER    CLOUDY    58  49  72 CALM      29.84F
EAGLE RIVER    CLOUDY    59  46  60 CALM      29.82F
LAND O LAKES   CLOUDY    56  50  80 CALM      29.84F
PHILLIPS       CLOUDY    59  50  73 SW5       29.83F
TOMAHAWK       PTCLDY    55  49  82 CALM      29.84F
MEDFORD        CLOUDY    58  49  71 CALM      29.85S
MERRILL        CLOUDY    61  51  70 SW3       29.85S
$$

WIZ029-030-035-036-043>047-280500-
CENTRAL WISCONSIN

CITY           SKY/WX    TMP DP  RH WIND       PRES   REMARKS
WAUSAU         LGT RAIN  61  53  75 SW5       29.83F
MOSINEE        CLOUDY    59  52  77 W5        29.86F
MARSHFIELD     CLOUDY    58  52  80 W5        29.84F
STEVENS POINT  CLOUDY    58  54  85 CALM      29.85F
WAUPACA        CLOUDY    67  51  56 W5        29.84R
WAUTOMA        CLOUDY    65  52  62 NW9       29.85
WISC RAPIDS    CLOUDY    59  55  87 N3        29.86F
CAMP DOUGLAS   CLOUDY    57  54  87 W3        29.85S
$$

WIZ011>013-019>022-031-037>040-048>050-280500-
NORTHEAST WISCONSIN

CITY           SKY/WX    TMP DP  RH WIND       PRES   REMARKS
ANTIGO         CLOUDY    59  51  75 W6        29.84F
SHAWANO        CLOUDY    66  51  57 W3        29.83S
OCONTO         CLOUDY    58  55  89 CALM      29.81R
STURGEON BAY   PTCLDY    59  53  80 SW6       29.82R
GREEN BAY      CLOUDY    64  60  87 CALM      29.81R
MANITOWOC      MOCLDY    61  53  75 SW5       29.83S
APPLETON       PTCLDY    63  52  67 W7        29.82R
CLINTONVILLE   CLOUDY    64  50  59 CALM      29.83S
OSHKOSH        CLOUDY    66  57  72 W5        29.82R
$$

WIZ032>034-041-042-053>061-280500-
SOUTHWEST WISCONSIN

CITY           SKY/WX    TMP DP  RH WIND       PRES   REMARKS
LA CROSSE      CLOUDY    60  57  89 CALM      29.85F
SPARTA         CLOUDY    56  56  99 CALM      29.86F
VIROQUA        CLOUDY    58  52  79 SW3       29.86F
BOSCOBEL       CLOUDY    61  59  93 CALM      29.84S
PRAIRIE DU CHI CLOUDY    61  58  91 CALM      29.84S
PLATTEVILLE    CLOUDY    62  62 100 CALM      29.84F
$$

WIZ056-057-062-063-064-067-068-280500-
SOUTH CENTRAL WISCONSIN

CITY           SKY/WX    TMP DP  RH WIND       PRES   REMARKS
REEDSBURG      CLOUDY    62  59  90 CALM      29.84F
BARABOO/DELLS  LGT RAIN  63  53  68 CALM      29.84F
LONE ROCK      LGT RAIN  63  58  83 CALM      29.82F
MINERAL POINT  CLOUDY    64  59  82 CALM      29.84F
MADISON        CLOUDY    65  57  75 N3        29.82F
MIDDLETON      CLOUDY    66  59  78 N3        29.83F
WATERTOWN      CLOUDY    64  59  83 SE5       29.83S
MONROE         CLOUDY    64  59  82 CALM      29.83F
JANESVILLE     CLOUDY    68  61  77 CALM      29.82F
$$

WIZ051-052-058>065-066-070>072-280500-
SOUTHEAST WISCONSIN

CITY           SKY/WX    TMP DP  RH WIND       PRES   REMARKS
MILWAUKEE      CLOUDY    65  54  67 SW3       29.85R
WAUKESHA       CLOUDY    63  52  67 S6        29.86S
MILWAUKEE/TIMM   N/A     63  50  63 S3        29.86R
RACINE         MOCLDY    61  51  70 SW3       29.86S
KENOSHA        CLOUDY    62  53  72 S3        29.85S
FOND DU LAC    CLOUDY    66  54  65 SW3       29.83R
SHEBOYGAN      CLOUDY    59  56  89 SW6       29.83S
WEST BEND      CLOUDY    61  55  82 CALM      29.84S
JUNEAU         CLOUDY    66  56  69 CALM      29.85S
$$

LSZ147-162-280500-
LAKE SUPERIOR

STATION/POSITION TIME  TEMP    WIND        PRES    WAVE
                       AIR SEA DIR/SP/G            HT/PER
                 (UTC) (F)     (DEG/KT/KT) (MB)    (FT/S)
W MID LAKE BUOY  0250   48 37  200/ 10/ 10 1008.7F   0
DEVILS ISLAND    0400   65     190/  9/ 11 1007.6F
PORT WING        0340          200/  6/ 10 1008.1F
SAXON HARBOR     0340   61     190/  5/  8 1008.5S
$$

LMZ867-665-643>646-280500-
LAKE MICHIGAN

STATION/POSITION TIME  TEMP    WIND        PRES    WAVE
                       AIR SEA DIR/SP/G            HT/PER
                 (UTC) (F)     (DEG/KT/KT) (MB)    (FT/S)
CHAMBERS ISLAND  0340   60     190/  5/  7 1008.8S
N MID LAKE BUOY  0350   46 42  160/  8/ 10 1010.3F   1
NORTHPORT PIER   0340   60     160/  4/  8 1008.8F
KEWAUNEE LAKESHO 0348   54     150/  3/  5 1009.5S
SHEBOYGAN LAKESH 0400   62     210/  6/  7 1010.0R
PORT WASHINGTON  0340   56      CALM  /  1 1011.5R
ATWATER BUOY     0309   53     170/  4/  6 1010.7R
MILWAUKEE LAKESH 0350   58     190/  2/  2   N/A
S MID LAKE BUOY  0250   53 50  100/  6/  6 1010.8F   0
KENOSHA   LAKESH 0400   60     210/  2/  3 1010.8
$$

TC  - TEMPERATURE IN CELSIUS
VSB - VISIBILITY IN STATUTE MILES
WCI - WIND CHILL INDEX
HX  - HEAT INDEX




USA.gov is the U.S. government's official web portal to all federal, state and local government web resources and services.